Weather History for Willmar, MN

Change the Weather History Date:

Sunday, December 9, 2012

  Actual Average (KLJF) Record (KLJF)
Temperature  
Mean Temperature 18 °F -  
Max Temperature 30 °F 26 °F 54 °F (1990)
Min Temperature 6 °F 10 °F -16 °F (1958)
Degree Days  
Heating Degree Days 47    
Moisture  
Dew Point 21 °F    
Average Humidity 88    
Maximum Humidity 93    
Minimum Humidity 72    
Precipitation  
Precipitation 0.07 in - - ()
Sea Level Pressure  
Sea Level Pressure 29.91 in    
Wind  
Wind Speed 17 mph (NE)    
Max Wind Speed 30 mph    
Max Gust Speed 36 mph    
Visibility 2 miles    
Events Snow    
Averages and records for this station are not official NWS values.
T = Trace of Precipitation, MM = Missing Value Source: NWS Daily Summary

Daily Weather History Graph

Daily Weather History Graph

Search for Another Location

Airport:

Trip Planner

Search our weather history database for the weather conditions in past years. The results will help you decide how hot, cold, wet, or windy it might be!

Date:

Astronomy

Dec. 09, 2012 Rise Set
Actual Time 7:47 AM CST 4:38 PM CST
Civil Twilight 7:14 AM CST 5:12 PM CST
Nautical Twilight 6:36 AM CST 5:49 PM CST
Astronomical Twilight 6:01 AM CST 6:24 PM CST
Moon 3:13 AM CST (12/9) 1:53 PM CST (12/9)
Length of Visible Light 9h 58m
Length of Day
8h 50m
Waning Crescent, 18% of the Moon is Illuminated
Dec 9
Waning Crescent
Dec 13
New
Dec 19
First Quarter
Dec 28
Full
Jan 4
Last Quarter

Hourly Weather History & Observations

Time (CST) Temp. Windchill Dew Point Humidity Pressure Visibility Wind Dir Wind Speed Gust Speed Precip Events Conditions
12:16 AM 28.4 °F 17.0 °F 26.6 °F 93% 29.92 in 1.0 mi East 15.0 mph - N/A Snow Snow
12:35 AM 28.4 °F 16.6 °F 26.6 °F 93% 29.91 in 1.2 mi ESE 16.1 mph - N/A Snow Light Snow
12:55 AM 30.2 °F 18.1 °F 26.6 °F 86% 29.90 in 1.5 mi East 18.4 mph 24.2 mph N/A Snow Light Snow
1:16 AM 30.2 °F 18.5 °F 26.6 °F 86% 29.90 in 4.0 mi ESE 17.3 mph 21.9 mph N/A Snow Light Snow
1:35 AM 30.2 °F 17.4 °F 26.6 °F 86% 29.89 in 2.5 mi ESE 20.7 mph 28.8 mph N/A Snow Light Snow
1:55 AM 30.2 °F 19.8 °F 26.6 °F 86% 29.90 in 2.5 mi ESE 13.8 mph - N/A Snow Light Snow
2:16 AM 30.2 °F 18.5 °F 26.6 °F 86% 29.90 in 1.5 mi ESE 17.3 mph - N/A Snow Light Snow
2:35 AM 30.2 °F 19.3 °F 26.6 °F 86% 29.91 in 1.0 mi ESE 15.0 mph - N/A Snow Snow
2:55 AM 30.2 °F 18.9 °F 28.4 °F 93% 29.90 in 1.0 mi ESE 16.1 mph - N/A Snow Snow
3:16 AM 30.2 °F 18.9 °F 28.4 °F 93% 29.89 in 2.0 mi ESE 16.1 mph 21.9 mph N/A Snow Light Snow
3:35 AM 30.2 °F 18.9 °F 28.4 °F 93% 29.89 in 0.8 mi ESE 16.1 mph - 0.01 in Snow Snow
3:55 AM 30.2 °F 19.3 °F 28.4 °F 93% 29.88 in 1.0 mi ESE 15.0 mph - 0.01 in Snow Snow
4:16 AM 30.2 °F 18.5 °F 28.4 °F 93% 29.88 in 1.2 mi ESE 17.3 mph - N/A Snow Light Snow
4:35 AM 30.2 °F 18.9 °F 28.4 °F 93% 29.88 in 0.8 mi ESE 16.1 mph - N/A Snow Snow
4:55 AM 30.2 °F 19.3 °F 28.4 °F 93% 29.88 in 1.0 mi East 15.0 mph 21.9 mph N/A Snow Snow
5:15 AM 30.2 °F 19.8 °F 28.4 °F 93% 29.87 in 2.5 mi East 13.8 mph - N/A Snow Light Snow
5:35 AM 30.2 °F 20.2 °F 26.6 °F 86% 29.86 in 2.0 mi East 12.7 mph - N/A Snow Light Snow
5:55 AM 30.2 °F 20.2 °F 26.6 °F 86% 29.86 in 1.5 mi East 12.7 mph - N/A Snow Light Snow
6:15 AM 30.2 °F 20.8 °F 28.4 °F 93% 29.86 in 1.2 mi East 11.5 mph - 0.01 in Snow Light Snow
6:35 AM 30.2 °F 20.8 °F 28.4 °F 93% 29.87 in 1.2 mi East 11.5 mph - 0.01 in Snow Light Snow
6:55 AM 30.2 °F 21.3 °F 28.4 °F 93% 29.88 in 1.0 mi East 10.4 mph - 0.01 in Snow Snow
7:15 AM 30.2 °F 20.8 °F 28.4 °F 93% 29.87 in 0.8 mi East 11.5 mph - 0.01 in Snow Snow
7:35 AM 30.2 °F 21.3 °F 28.4 °F 93% 29.87 in 0.5 mi East 10.4 mph - 0.02 in Snow Snow
7:56 AM 30.2 °F 20.8 °F 28.4 °F 93% 29.87 in 0.5 mi East 11.5 mph - N/A Snow Snow
8:15 AM 30.2 °F 20.8 °F 28.4 °F 93% 29.88 in 0.2 mi ENE 11.5 mph - 0.01 in Snow Snow
8:35 AM 30.2 °F 20.2 °F 28.4 °F 93% 29.88 in 0.2 mi ENE 12.7 mph - 0.01 in Snow Snow
8:55 AM 28.4 °F 17.5 °F 26.6 °F 93% 29.87 in 0.5 mi ENE 13.8 mph - 0.01 in Snow Snow
9:15 AM 28.4 °F 18.0 °F 26.6 °F 93% 29.88 in 0.2 mi ENE 12.7 mph - N/A Snow Snow
9:35 AM 28.4 °F 17.0 °F 26.6 °F 93% 29.88 in 0.5 mi ENE 15.0 mph - N/A Snow Snow
9:55 AM 28.4 °F 17.5 °F 26.6 °F 93% 29.88 in 0.5 mi NE 13.8 mph - 0.01 in Snow Light Snow
10:15 AM 28.4 °F 17.5 °F 26.6 °F 93% 29.88 in 0.5 mi NE 13.8 mph - N/A Snow Light Snow
10:35 AM 28.4 °F 17.5 °F 26.6 °F 93% 29.88 in 0.5 mi NE 13.8 mph - N/A Snow Snow
10:56 AM 30.2 °F 19.3 °F 26.6 °F 86% 29.88 in 0.5 mi NE 15.0 mph 21.9 mph N/A Snow Light Snow
11:15 AM 28.4 °F 15.4 °F 26.6 °F 93% 29.87 in 0.8 mi NE 19.6 mph 26.5 mph 0.01 in Snow Light Snow
11:35 AM 28.4 °F 16.2 °F 26.6 °F 93% 29.86 in 1.0 mi NE 17.3 mph 23.0 mph 0.01 in Snow Light Snow
11:55 AM 28.4 °F 15.1 °F 26.6 °F 93% 29.85 in 0.8 mi NE 20.7 mph - 0.01 in Snow Light Snow
12:15 PM 28.4 °F 14.4 °F 26.6 °F 93% 29.85 in 0.5 mi NNE 23.0 mph - N/A Snow Snow
12:36 PM 28.4 °F 14.7 °F 26.6 °F 93% 29.85 in 0.5 mi NNE 21.9 mph 27.6 mph N/A Snow Snow
12:55 PM 28.4 °F 14.7 °F 24.8 °F 86% 29.85 in 0.5 mi NNE 21.9 mph 25.3 mph N/A Snow Snow
1:15 PM 28.4 °F 14.4 °F 24.8 °F 86% 29.85 in 0.5 mi NNE 23.0 mph 32.2 mph N/A Snow Snow
1:36 PM 28.4 °F 14.4 °F 24.8 °F 86% 29.85 in 0.5 mi North 23.0 mph 34.5 mph N/A Snow Snow
1:55 PM 26.6 °F 11.7 °F 24.8 °F 93% 29.85 in 0.5 mi North 24.2 mph 31.1 mph N/A Snow Snow
2:15 PM 24.8 °F 8.7 °F 21.2 °F 86% 29.85 in 0.5 mi North 26.5 mph 33.4 mph N/A Snow Snow
2:36 PM 24.8 °F 9.3 °F 19.4 °F 80% 29.86 in - North 24.2 mph 34.5 mph N/A   Overcast
2:55 PM 23.0 °F 5.7 °F 19.4 °F 86% 29.87 in - North 28.8 mph 35.7 mph N/A   Overcast
3:15 PM 21.2 °F 6.0 °F 19.4 °F 93% 29.89 in - North 19.6 mph 34.5 mph N/A   Overcast
3:35 PM - - - N/A% - - North - - N/A   Unknown
3:55 PM 21.2 °F 4.9 °F 17.6 °F 86% 29.91 in - North 23.0 mph 32.2 mph N/A   Overcast
4:15 PM 19.4 °F 0.5 °F 17.6 °F 93% 29.92 in - North 29.9 mph 33.4 mph N/A   Overcast
4:35 PM 19.4 °F 1.1 °F 15.8 °F 86% 29.93 in - North 27.6 mph 33.4 mph N/A   Overcast
4:55 PM 19.4 °F 2.5 °F 15.8 °F 86% 29.94 in - North 23.0 mph 32.2 mph N/A   Overcast
5:15 PM 19.4 °F 2.1 °F 15.8 °F 86% 29.95 in - North 24.2 mph 31.1 mph N/A   Unknown
5:35 PM 17.6 °F -1.3 °F 15.8 °F 93% 29.96 in - North 27.6 mph 33.4 mph N/A   Overcast
5:55 PM 17.6 °F 0.1 °F 15.8 °F 93% 29.97 in - North 23.0 mph 33.4 mph N/A   Overcast
6:15 PM 17.6 °F -0.6 °F 14.0 °F 86% 29.97 in - North 25.3 mph 34.5 mph N/A   Overcast
6:35 PM 17.6 °F 0.5 °F 14.0 °F 86% 29.98 in - North 21.9 mph - N/A   Overcast
6:55 PM 17.6 °F -0.6 °F 12.2 °F 79% 29.98 in - North 25.3 mph 31.1 mph N/A   Overcast
7:15 PM 17.6 °F 0.5 °F 12.2 °F 79% 30.00 in - North 21.9 mph 31.1 mph N/A   Unknown
7:35 PM 17.6 °F 0.9 °F 12.2 °F 79% 30.00 in - NNW 20.7 mph 29.9 mph N/A   Unknown
7:55 PM - - - N/A% 29.99 in - NNW 21.9 mph 28.8 mph N/A   Unknown
8:16 PM - - - N/A% 29.99 in - NNW 24.2 mph - N/A   Unknown
8:35 PM 15.8 °F -0.2 °F 10.4 °F 79% 30.01 in - NNW 17.3 mph 33.4 mph N/A   Overcast
8:55 PM 15.8 °F -0.6 °F 10.4 °F 79% 30.02 in - NNW 18.4 mph 27.6 mph N/A   Overcast
9:16 PM 14.0 °F -3.4 °F 8.6 °F 79% 30.02 in - NNW 19.6 mph - N/A   Overcast
9:35 PM 12.2 °F -5.8 °F 6.8 °F 79% 30.02 in - NNW 19.6 mph - N/A   Overcast
9:55 PM 12.2 °F -3.1 °F 6.8 °F 79% 30.02 in 7.0 mi NNW 13.8 mph - N/A Snow Light Snow
10:16 PM 10.4 °F -7.2 °F 6.8 °F 85% 30.02 in 7.0 mi NW 17.3 mph - N/A Snow Light Snow
10:55 PM 6.8 °F -7.8 °F 1.4 °F 79% 30.02 in 10.0 mi NW 10.4 mph - N/A   Clear
11:15 PM 6.8 °F -10.7 °F -0.4 °F 72% 30.02 in 10.0 mi NW 15.0 mph 23.0 mph N/A   Clear
11:35 PM 6.8 °F -11.3 °F -0.4 °F 72% 30.02 in 10.0 mi NW 16.1 mph - N/A   Scattered Clouds
11:55 PM 8.6 °F -8.3 °F 1.4 °F 73% 30.02 in 10.0 mi NW 15.0 mph - N/A   Mostly Cloudy